Regional Weather Roundup
Issued by NWS Wakefield, VA

Home | Current Version | Previous Version | Graphics & Text | Print | Product List | Glossary On
Versions: 1 2 3 4 5 6 7 8 9 10 11 12 13 14 15 16 17 18 19 20 21 22 23 24 25 26 27 28 29 30 31 32 33 34 35 36 37 38 39 40 41 42 43 44 45 46 47 48 49 50
000
ASUS41 KAKQ 261914
RWRAKQ

REGIONAL WEATHER ROUNDUP
NATIONAL WEATHER SERVICE WAKEFIELD VA
300 PM EDT SUN APR 26 2015

Note: "fair" indicates few or no clouds below 12,000 feet with no
significant weather and/or obstructions to visibility. * = Denotes
station may not report precipitation (e.g., rain,snow,etc.),
thunder or fog.

VAZ042-051-052>054-056-262000-
NORTHERN VIRGINIA

CITY           SKY/WX    TMP DP  RH WIND       PRES   REMARKS
WASH NATIONAL  PTSUNNY   65  33  30 CALM      29.70S
DULLES         PTSUNNY   61  35  37 NW9       29.71S
FORT BELVOIR   SUNNY     63  32  31 NW6       29.70S
QUANTICO       MOSUNNY   62  36  37 E8        29.71F
FREDERICKSBRG* SUNNY     63  36  36 W6        29.70S
STAFFORD*      MOSUNNY   61  34  37 N6        29.74F
WARRENTON      MOSUNNY   62  36  37 N9        29.71S
CULPEPER*      SUNNY     63  34  34 NE9       29.72S
MANASSAS*      PTSUNNY   63  34  34 N7        29.71S
LEESBURG*      MOSUNNY   61  34  36 N10       29.71S
WINCHESTER     SUNNY     59  23  25 NW6       29.71F
FRONT ROYAL*   FAIR      59  34  38 NW6       29.71S
LURAY*         FAIR      61  36  39 N3        29.72S
$$

VAZ048-049-060>072-079>083-262000-
CENTRAL AND SOUTH CENTRAL VIRGINIA

CITY           SKY/WX    TMP DP  RH WIND       PRES   REMARKS
RICHMOND       PTSUNNY   59  40  49 NE14      29.71F
CHESTERFIELD*  FAIR      57  34  41 CALM      29.73S
PETERSBURG*    PTSUNNY   58  39  48 NE6       29.72S
HANOVER        PTSUNNY   58  40  51 VRB5      29.72F
TAPPAHANNOCK*  MOSUNNY   60  33  36 NW5       29.71F
QUINTON*       FAIR      58  40  52 N14G21    29.70F
CHARLOTTSVILLE MOSUNNY   58  33  39 CALM      29.71F
GORDONSVILLE*  MOCLDY    60  38  44 NE7       29.71F
ORANGE*        PTSUNNY   61  37  41 N10       29.73S
LOUISA*        PTSUNNY   61  37  41 NE7       29.70F
BUMPASS*       FAIR      58  37  44 N6        29.71F
FARMVILLE*     CLOUDY    58  41  52 CALM      29.72F
CREWE*         CLOUDY    55  41  59 NW5       29.72S
FORT PICKETT*  MOCLDY    54  41  60 N8G16     29.72S
CHASE CITY*    CLOUDY    52  47  82 NW3       29.74S
CLARKSVILLE*   CLOUDY    50  45  81 N6        29.74S
SOUTH HILL*    CLOUDY    49  43  80 N3        29.79S
LAWRENCEVILLE* CLOUDY    53  45  72 NW5       29.72S
EMPORIA*       CLOUDY    50  45  81 N6        29.73S
$$

VAZ088>098-262000-
SOUTHEAST VIRGINIA

CITY           SKY/WX    TMP DP  RH WIND       PRES   REMARKS
NORFOLK        PTSUNNY   56  42  59 N10       29.69S
VIRGINIA BEACH PTSUNNY   58  43  57 N10G20    29.68S
NORFOLK NAVAL  MOSUNNY   58  41  53 N12       29.71S
WEST POINT*    MOSUNNY   62  36  38 NE8       29.71F
SALUDA*        FAIR      56  42  59 NW6       29.70S
NEWPORT NEWS   MOSUNNY   61  39  44 N16       29.69F
LANGLEY AFB    SUNNY     57  42  56 NE13      29.68F
FORT EUSTIS    MOSUNNY   59  37  43 NE8G17    29.67F
WILLIAMSBURG*  SUNNY     64  46  52 NE3       29.70F
HR EXEC AP*    CLOUDY    55  43  62 N6        29.71S
FRANKLIN*      CLOUDY    54  43  67 N3        29.71S
WAKEFIELD      PTSUNNY   58  42  55 VRB6      29.70F
$$

VAZ020-022-025-037-045-262000-
WEST CENTRAL AND SOUTHWEST VIRGINIA

CITY           SKY/WX    TMP DP  RH WIND       PRES   REMARKS
STAUNTON*      MOSUNNY   56  36  48 NE5       29.74F
WAYNESBORO*    FAIR      51  35  53 NW3       29.73F
HOT SPRINGS VA CLOUDY    39  39 100 CALM      29.71S
LYNCHBURG      CLOUDY    51  40  65 VRB6      29.76R
DANVILLE       CLOUDY    53  43  68 NE9       29.75R
SOUTH BOSTON*  CLOUDY    50  43  76 N9        29.75S
MARTINSVILLE   DRIZZLE   49  45  83 CALM      29.77S
ROANOKE        CLOUDY    50  42  74 NE10      29.77S
BLACKSBURG     CLOUDY    47  42  81 N6        29.76S
DUBLIN*        CLOUDY    49  47  91 CALM      29.75S
MARION*        CLOUDY    48  45  90 CALM      29.75S
HILLSVILLE*    CLOUDY    45  44  94 N7        29.72F
RICHLANDS*     CLOUDY    46  28  50 NW6       29.75R
WISE*          CLOUDY    46  45  93 N8        29.78R
ABINGDON*      CLOUDY    53  47  80 N6        29.73S
$$

MDZ021>025-VAZ099-100-262000-
SOUTHERN MARYLAND AND THE DELMARVA PENINSULA

CITY           SKY/WX    TMP DP  RH WIND       PRES   REMARKS
PATUXENT RIVER PTSUNNY   58  36  43 NE9       29.70S
BAY BRIDGE APT   N/A    N/A N/A N/A NW5       29.69F
LEONARDTOWN    SUNNY     59  32  36 N5        29.71F
DOVER          PTSUNNY   59  40  49 E13       29.64F
GEORGETOWN     MOSUNNY   60  32  34 NE8G21    29.68F
EASTON         MOSUNNY   63  36  36 NE8       29.72S
CAMBRIDGE      MOSUNNY   61  37  41 NW3       29.68S
SALISBURY      CLOUDY    59  36  42 N6        29.67F
OCEAN CITY     SUNNY     56  41  57 E8        29.69F
WALLOPS ISLAND MOSUNNY   57  37  47 NE12      29.68F
ACCOMACK*      SUNNY     55 -45   1 NW14      29.69S
$$

NCZ012>017-030>032-262000-
NORTH CENTRAL AND EASTERN NORTH CAROLINA

CITY           SKY/WX    TMP DP  RH WIND       PRES   REMARKS
ROANOKE RAPIDS CLOUDY    52  45  76 N6        29.72S
RALEIGH        CLOUDY    51  46  83 N6        29.73R
ELIZABETH CITY CLOUDY    52  45  77 N10       29.69S
AHOSKIE*       CLOUDY    50  44  79 N5        29.72S
EDENTON*       CLOUDY    53  48  84 N10       29.69R
CURRITUCK*     CLOUDY    53  42  65 N13G22    29.69S
KILL DEVIL HLS CLOUDY    51  43  73 N13G20    29.66R
MANTEO         CLOUDY    51  45  79 N20G25    29.67R
CAPE HATTERAS  CLOUDY    50  48  93 N12G28    29.64R
TARBORO*       CLOUDY    53  47  81 N7        29.73R
GOLDSBORO      CLOUDY    53  49  86 N9        29.69R
WASHINGTON     CLOUDY    51  47  87 NW6       29.70R
GREENVILLE     CLOUDY    52  46  82 N6        29.74R
NEW BERN       CLOUDY    54  48  80 N9        29.70R
WILMINGTON     CLOUDY    61  52  72 N12       29.67R
$$

VAZ048-262000-
ELSEWHERE

CITY           SKY/WX    TMP DP  RH WIND       PRES   REMARKS
HARRISBURG PA  MOSUNNY   61  30  31 W9        29.69F
BALTIMORE      PTSUNNY   62  30  29 N7G22     29.68S
ANNAPOLIS      MOSUNNY   58  38  47 SE12      29.68F
ANDREWS AFB    SUNNY     60  33  35 N9        29.68S
PHILADELPHIA   MOSUNNY   60  30  32 VRB5      29.68F
HENDERSON NC   CLOUDY    50  44  80 N6        29.73S
GREENSBORO     CLOUDY    51  45  79 N7        29.73R
ROCKY MOUNT    CLOUDY    53  46  77 N12       29.72R
$$

VAZ100-262000-
MARINE

STATION/POSITION TIME  TEMP    WIND        PRES    WAVE   SWELL
                       AIR SEA DIR/SP/G            HT/PER HT/PER
                 (UTC) (F)     (DEG/KT/KT) (MB)    (FT/S) (FT/S)
BRANDYWINE LGT   1800          160/ 11/ 11 1005.9R
CAPE MAY NJ      1800   55 55   40/  6/ 11 1005.5R
LEWES DE         1800   51 52   90/  6/  8 1005.6F
15NM E FENWICK I 1850   47 48              1005.3F   1/12
OCEAN-CITY-INLET 1800           70/  5/ 11 1005.4R
WACHAPREAGUE VA  1800   54 55   70/  9/ 11 1005.2F
THOMAS POINT MD  1900   56 54   60/  7/  7 1006.1F
GOOSES REEF MD   1900   54 54  340/  4/  4   N/A     1/ 2
COVE POINT MD    1800   51      20/  7/  9 1006.5F
SOLOMONS ISLAND  1800      56                N/A
BISHOPS HEAD MD  1800   54 56  290/ 11/ 12 1005.2F
PINEY POINT MD   1800          290/  5/  6   N/A
CAMBRIDGE MD     1800   56 57  310/  7/  9 1005.2F
LEWISETTA VA     1800   55 57              1005.5F
RAPPAHANNOCK LGT 1800          340/ 12/ 13 1006.1F
YORK RVR RNG VA  1800   53      50/ 10/ 12 1005.2S
YORKTOWN VA      1800   54 59   30/  9/ 14 1005.3F
JAMESTOWN VA     1900   56 63   40/  6/ 12 1004.6F
DOMINION TERM VA 1800   53      20/  6/ 12 1005.5F
KIPTOPEKE VA     1800      61  340/  7/ 11   N/A
CHES BAY BRIDGE  1800           10/ 13/ 18 1004.8F
CAPE HENRY VA    1800   51      10/ 13/ 17 1003.9F
CHESAPEAKE LGHT  1800   50      10/ 14/ 15 1005.6F
WILLOUBY STN VA  1800   51      30/ 14/ 16 1006.1F
S CRANEY ISL VA  1800           20/ 13/ 17 1005.3F
CAPE HENRY BUOY  1828      51                N/A     4/ 6
1ST LANDING BUOY 1800                      1005.2    3/ 3
OFFSHORE WE BUOY 1811      50                N/A     5/ 5   3/ 9
64NM E OF VA BCH 1850   52 57   10/ 19/ 23 1002.8F   6/ 6   2/ 9
DUCK PIER NC     1800   49 54   10/ 17/ 21 1003.4F
44056 DUCK FRF   1811      54                N/A     5/ 6
OREGON INLET NC  1800   49 54  350/ 18/ 22 1003.9R
HATTERAS NC      1800   55 63  360/ 22/ 25 1002.5R
DIAMOND SHLS NC  1850   55 76  360/ 25/ 31 1002.0R   7/ 8
CAPE LOOKOUT NC  1900   56     350/ 14/ 16 1003.7R
$$


USA.gov is the U.S. government's official web portal to all federal, state and local government web resources and services.